Content
SEND FEEDBACK

Daily
Averages
Monthly
Summary
United States of America

NEW YORK - CENTRAL PARK, NEW YORK


Home > North America > United States > New York
Elevation: 14 feet     Latitude: 40 47N     Longitude: 073 58W

WEATHER
 
SELECT A DAY
Number of Records: 148,305;   Date Range: 11/1/95 - 9/16/14
 
SHARE

PRINT THIS DATA

[ ← Previous Day ]
WEATHER ALMANAC - FEBRUARY 24, 2014
[ Next Day → ]
[ °C ]   °F
Weather ElementAverageHighLow
Temperature34.9 °F43 °F (1:51 am)27 °F (11:51 pm)
Dewpoint12.7 °F26.1 °F (1:51 am)5 °F (11:51 pm)
Humidity40.3 %51 % (1:51 am)31 % (11:51 am)
Barometer29.92 in30.08 in (10:51 pm)29.81 in (1:51 am)
Wind Speed9.5 mph16.1 mph (8:51 pm)
Wind Gust26.5 mph (3:51 pm)
Weather ElementAverage
Visibility10 mi
Wind DirectionWSW (232.6 °)

Weather ElementTotal
Precipitation---
Heating Degree Days30 (Base 65)
Averaged from 23 records on February 24, 2014
WEATHER CONDITIONS BREAKOUT
WIND DIRECTION BREAKOUT
WEATHER BY HOUR - FEBRUARY 24, 2014
[ °C ]   °F
Local TimeTemperatureDewpointHumidityBarometerVisibilityWind DirectionWind SpeedGust SpeedPrecipitationEventsConditions
1:51 AM43.0 °F26.1 °F51 %29.81 in10.0 miVariable3.5 mphOvercast
2:51 AM43.0 °F26.1 °F51 %29.81 in10.0 miWest (270°)8.1 mphMostly Cloudy
3:51 AM42.1 °F24.1 °F49 %29.81 in10.0 miWNW (290°)3.5 mphClear
4:51 AM41.0 °F19.0 °F41 %29.84 in10.0 miWNW (300°)6.9 mphClear
5:51 AM37.9 °F15.1 °F39 %29.85 in10.0 miNorth (350°)11.5 mphClear
6:51 AM35.1 °F12.0 °F39 %29.86 in10.0 miVariable5.8 mphClear
7:51 AM34.0 °F12.0 °F40 %29.90 in10.0 miNW (310°)8.1 mph17.3 mphClear
8:51 AM33.1 °F10.9 °F40 %29.91 in10.0 miNW (310°)9.2 mph18.4 mphClear
9:51 AM34.0 °F12.0 °F40 %29.91 in10.0 miVariable3.5 mphClear
10:51 AM35.1 °F10.0 °F35 %29.91 in10.0 miWNW (290°)8.1 mphClear
11:51 AM37.0 °F9.0 °F31 %29.89 in10.0 miWest (280°)12.7 mph19.6 mphPartly Cloudy
12:51 PM37.0 °F10.0 °F33 %29.88 in10.0 miVariable5.8 mphScattered Clouds
1:51 PM36.0 °F8.1 °F31 %29.87 in10.0 miWNW (290°)9.2 mph23.0 mphScattered Clouds
2:51 PM36.0 °F8.1 °F31 %29.88 in10.0 miNorthMostly Cloudy
3:51 PM36.0 °F9.0 °F33 %29.89 in10.0 miWNW (290°)12.7 mph26.5 mphOvercast
4:51 PM34.0 °F10.9 °F38 %29.93 in10.0 miWest (280°)13.8 mph23.0 mphOvercast
5:51 PM33.1 °F12.0 °F42 %29.96 in10.0 miWNW (290°)15.0 mph25.3 mphClear
6:51 PM32.0 °F12.9 °F45 %30.00 in10.0 miWNW (290°)11.5 mph20.7 mphMostly Cloudy
7:51 PM30.9 °F14.0 °F50 %30.03 in10.0 miWNW (290°)13.8 mph23.0 mphOvercast
8:51 PM30.0 °F10.9 °F45 %30.06 in10.0 miNW (310°)16.1 mph25.3 mphMostly Cloudy
9:51 PM28.0 °F8.1 °F43 %30.07 in10.0 miNW (310°)12.7 mph23.0 mphClear
10:51 PM28.0 °F7.0 °F41 %30.08 in10.0 miWNW (300°)8.1 mphClear
11:51 PM27.0 °F5.0 °F39 %30.08 in10.0 miWNW (300°)10.4 mph19.6 mphClear
Hourly data recorded from KNYC, located miles away from New York - Central Park, New York







STORIES FROM OUR PARTNERS